Back to catalog

STARLINK-32145

AliveCommunicationsVLEO
NORAD 60154·PAYLOAD·🇺🇸 United States

Launched Jun 27, 2024 from Cape Canaveral Space Force Station

Loading…

Next Passes (next 24 hours)

TLE

FreshSource: CelesTrak SupGP

Epoch: Sep 14, 2026, 14:17 UTC

1 60154C 24120V   26257.59562500  .00063879  00000+0  18881-2 0  2576
2 60154  53.1571 159.0378 0001308 105.8090  14.2602 15.34345949    11

Track STARLINK-32145 in real time with AllMySat

Download on the App Store